Location: Morlupo
(42.1333°N, 12.5000°E)
Time: 14:59:01
(UTC+00:00)

Cosmos 1674 - Pass Details

Date: 18 September 2020
Orbit: 494 x 518 km, 82.5° (Epoch: 25 October)

Event Time Altitude Azimuth Distance (km) Brightness Sun altitude
Rises 19:04:05 0° 356° (N) 2,651 6.7 -20.7°
Reaches altitude 10° 19:06:16 10° 2° (N) 1,759 5.6 -21.1°
Enters shadow 19:09:05 41° 31° (NNE) 770 3.4 -21.6°
